Santiago de Compostela, Spain

9:06 AM CEST on March 29, 2017 (GMT +0200)
Santiago

Weather History for LEST - February, 2013

Change the Weather History Date:

Thursday, February 21, 2013

  Actual Average Record
Temperature  
Mean Temperature 50 °F -  
Max Temperature 55 °F 56 °F 69 °F (2001)
Min Temperature 46 °F 40 °F 26 °F (2004)
Degree Days  
Heating Degree Days 14    
Moisture  
Dew Point 48 °F    
Average Humidity 94    
Maximum Humidity 100    
Minimum Humidity 82    
Precipitation  
Precipitation 0.00 in - - ()
Sea Level Pressure  
Sea Level Pressure 29.75 in    
Wind  
Wind Speed 7 mph ()    
Max Wind Speed 12 mph    
Max Gust Speed -    
Visibility 4.3 miles    
Events Fog , Rain    
Averages and records for this station are not official NWS values.
T = Trace of Precipitation, MM = Missing Value Source: Averaged Metar Reports

Daily Weather History Graph

Daily Weather History Graph

Search for Another Location

Airport or City:

Trip Planner

Search our weather history database for the weather conditions in past years. The results will help you decide how hot, cold, wet, or windy it might be!

Date:

Astronomy

Feb. 21, 2013 Rise Set
Actual Time 8:22 AM CET 7:13 PM CET
Civil Twilight 7:53 AM CET 7:41 PM CET
Nautical Twilight 7:20 AM CET 8:14 PM CET
Astronomical Twilight 6:47 AM CET 8:47 PM CET
Moon 3:11 PM CET (2/21) 5:21 AM CET (2/21)
Length of Visible Light 11h 48m
Length of Day
10h 50m
Waxing Gibbous, 82% of the Moon is Illuminated
Feb 21
Waxing Gibbous
Feb 25
Full
Mar 4
Last Quarter
Mar 11
New
Mar 19
First Quarter

Hourly Weather History & Observations

Time (CET) Temp. Windchill Dew Point Humidity Pressure Visibility Wind Dir Wind Speed Gust Speed Precip Events Conditions
12:00 AM 46.4 °F 44.3 °F 44.6 °F 93% 29.86 in 6.2 mi SE 4.6 mph - N/A   Mostly Cloudy
12:30 AM 46.4 °F 42.4 °F 44.6 °F 93% 29.86 in 6.2 mi SSE 8.1 mph - N/A   Mostly Cloudy
1:00 AM 48.2 °F - 44.6 °F 87% 29.86 in 6.2 mi South 10.4 mph - N/A   Mostly Cloudy
1:30 AM 46.4 °F 41.9 °F 44.6 °F 93% 29.86 in 5.0 mi SSE 9.2 mph - N/A Rain Light Rain
2:00 AM 46.4 °F 42.9 °F 44.6 °F 93% 29.83 in 3.7 mi SSE 6.9 mph - N/A Rain Light Rain
2:30 AM 46.4 °F 42.4 °F 44.6 °F 93% 29.83 in 3.7 mi SSE 8.1 mph - N/A Rain Light Rain
3:00 AM 46.4 °F 41.5 °F 44.6 °F 93% 29.80 in 3.7 mi SE 10.4 mph - N/A Rain Light Rain
4:00 AM 46.4 °F 41.5 °F 44.6 °F 93% 29.77 in 5.0 mi SE 10.4 mph - N/A   Mostly Cloudy
5:00 AM 46.4 °F 42.9 °F 44.6 °F 93% 29.77 in 5.0 mi SSE 6.9 mph - N/A Rain Light Rain
5:30 AM 46.4 °F 42.9 °F 44.6 °F 93% 29.77 in 5.0 mi South 6.9 mph - N/A Rain Light Rain
6:00 AM 46.4 °F 41.9 °F 46.4 °F 100% 29.77 in 5.0 mi SSE 9.2 mph - N/A Rain Light Rain
6:30 AM 46.4 °F 45.2 °F 46.4 °F 100% 29.77 in 3.7 mi SSE 3.5 mph - N/A Rain Light Rain
7:00 AM 46.4 °F - 46.4 °F 100% 29.77 in 3.7 mi Variable 1.2 mph - N/A Rain Light Rain
7:30 AM 46.4 °F 42.9 °F 46.4 °F 100% 29.77 in 3.7 mi SSE 6.9 mph - N/A Rain Light Rain
8:00 AM 46.4 °F 42.4 °F 46.4 °F 100% 29.74 in 1.9 mi SSE 8.1 mph - N/A Rain Light Rain
8:30 AM 46.4 °F 43.5 °F 46.4 °F 100% 29.77 in 1.2 mi SE 5.8 mph - N/A Rain Light Rain
9:00 AM 46.4 °F 43.5 °F 46.4 °F 100% 29.77 in 1.2 mi ESE 5.8 mph - N/A Fog , Rain Light Rain
9:30 AM 46.4 °F 42.4 °F 46.4 °F 100% 29.77 in 1.9 mi SE 8.1 mph - N/A Fog , Rain Light Rain
10:00 AM 48.2 °F - 48.2 °F 100% 29.77 in 1.9 mi SSE 9.2 mph - N/A Fog , Rain Light Rain
10:30 AM 48.2 °F - 48.2 °F 100% 29.77 in 1.9 mi SSE 8.1 mph - N/A Fog , Rain Rain
11:00 AM 48.2 °F - 48.2 °F 100% 29.77 in 1.2 mi SSE 8.1 mph - N/A Fog , Rain Rain
11:30 AM 48.2 °F - 48.2 °F 100% 29.77 in 1.2 mi SE 10.4 mph - N/A Fog , Rain Light Rain
12:00 PM 50.0 °F - 50.0 °F 100% 29.77 in 3.1 mi SE 10.4 mph - N/A Fog , Rain Light Rain
12:30 PM 50.0 °F - 50.0 °F 100% 29.77 in 2.5 mi SSE 8.1 mph - N/A Fog , Rain Light Rain
1:00 PM 50.0 °F - 50.0 °F 100% 29.77 in 3.7 mi SSE 9.2 mph - N/A Fog , Rain Light Rain
1:30 PM 51.8 °F - 51.8 °F 100% 29.77 in 5.0 mi South 8.1 mph - N/A   Mostly Cloudy
2:00 PM 53.6 °F - 51.8 °F 94% 29.77 in 6.2 mi SSW 9.2 mph - N/A   Mostly Cloudy
2:30 PM 53.6 °F - 51.8 °F 94% 29.74 in 6.2 mi SW 11.5 mph - N/A   Mostly Cloudy
3:00 PM 53.6 °F - 50.0 °F 88% 29.74 in 6.2 mi SW 9.2 mph - N/A   Mostly Cloudy
3:30 PM 55.4 °F - 50.0 °F 82% 29.74 in 6.2 mi SSW 11.5 mph - N/A   Mostly Cloudy
4:00 PM 53.6 °F - 50.0 °F 88% 29.74 in 6.2 mi SSW 11.5 mph - N/A   Mostly Cloudy
4:30 PM 53.6 °F - 50.0 °F 88% 29.71 in 6.2 mi SSW 9.2 mph - N/A   Mostly Cloudy
5:00 PM 55.4 °F - 50.0 °F 82% 29.68 in 6.2 mi SSW 9.2 mph - N/A   Mostly Cloudy
5:30 PM 53.6 °F - 48.2 °F 82% 29.68 in 6.2 mi South 10.4 mph - N/A   Mostly Cloudy
6:00 PM 51.8 °F - 50.0 °F 94% 29.68 in 4.3 mi SSW 11.5 mph - N/A Rain Light Rain
6:30 PM 51.8 °F - 48.2 °F 88% 29.68 in 5.6 mi South 10.4 mph - N/A   Mostly Cloudy
7:00 PM 51.8 °F - 50.0 °F 94% 29.68 in 6.2 mi South 8.1 mph - N/A   Mostly Cloudy
7:30 PM 51.8 °F - 50.0 °F 94% 29.68 in 5.6 mi SSW 9.2 mph - N/A Rain Light Rain
8:00 PM 51.8 °F - 50.0 °F 94% 29.68 in 5.0 mi SSW 9.2 mph - N/A   Mostly Cloudy
8:30 PM 51.8 °F - 50.0 °F 94% 29.68 in 4.3 mi SSW 5.8 mph - N/A   Mostly Cloudy
9:00 PM 50.0 °F - 48.2 °F 94% 29.68 in 3.7 mi Variable 2.3 mph - N/A Rain Rain
9:30 PM 50.0 °F - 48.2 °F 94% 29.68 in 3.7 mi SSW 6.9 mph - N/A Rain Light Rain
10:00 PM 50.0 °F - 48.2 °F 94% 29.68 in 5.0 mi SSW 3.5 mph - N/A Rain Light Rain
10:30 PM 50.0 °F - 48.2 °F 94% 29.68 in 5.0 mi Variable 2.3 mph - N/A Rain Light Rain
11:00 PM 50.0 °F - 48.2 °F 94% 29.68 in 3.1 mi Variable 2.3 mph - N/A Rain Rain
11:30 PM 48.2 °F - 46.4 °F 93% 29.68 in 5.6 mi Calm Calm - N/A Rain Light Rain